Location: Newark
(44.8699°N, 13.8438°E)
Time: 18:24:23
(UTC+00:00)

OTV 5 (USA 277) - Visible Passes

Search period start: 18 October 2019 00:00
Search period end: 28 October 2019 00:00
Orbit: 310 x 324 km, 54.5° (Epoch: 08 October)

Date Brightness Start Highest point End Pass type
(mag) Time Alt. Az. Time Alt. Az. Time Alt. Az.
18 Oct ? 03:05:07 16° ENE 03:05:07 16° ENE 03:06:04 10° ENE visible
18 Oct ? 04:36:01 12° WNW 04:38:26 57° SW 04:41:06 10° SE visible
19 Oct ? 03:19:36 26° ENE 03:19:36 26° ENE 03:21:13 10° E visible
19 Oct ? 04:50:39 10° W 04:52:50 21° SW 04:55:01 10° S visible
20 Oct ? 03:34:13 37° ESE 03:34:13 37° ESE 03:36:00 10° SE visible
21 Oct ? 03:48:58 22° S 03:48:58 22° S 03:50:17 10° SSE visible
